| time (UTC) | temp F | wind direction | speed MPH | gust MPH | rain 1hr in | rain 24hr in | rain mn in | humidity % | barometer mb |
| 20260502170333 | 44 | 275 | 6.0 | 8.0 | 0.00 | 0.00 | 0.00 | 66 | 1019.8 |
| 20260502164332 | 46 | 254 | 4.0 | 8.0 | 0.00 | 0.00 | 0.00 | 63 | 1019.8 |
| 20260502163819 | 47 | 265 | 3.0 | 5.0 | 0.00 | 0.00 | 0.00 | 65 | 1019.9 |
| 20260502163315 | 46 | 268 | 3.0 | 7.0 | 0.00 | 0.00 | 0.00 | 64 | 1019.9 |
| 20260502162831 | 46 | 271 | 3.0 | 7.0 | 0.00 | 0.00 | 0.00 | 64 | 1019.8 |
| 20260502162328 | 46 | 265 | 4.0 | 7.0 | 0.00 | 0.00 | 0.00 | 64 | 1019.9 |
| 20260502161826 | 46 | 275 | 4.0 | 7.0 | 0.00 | 0.00 | 0.00 | 64 | 1019.9 |
| 20260502161323 | 46 | 280 | 4.0 | 7.0 | 0.00 | 0.00 | 0.00 | 64 | 1019.9 |
| 20260502160838 | 45 | 270 | 3.0 | 7.0 | 0.00 | 0.00 | 0.00 | 64 | 1019.9 |
| 20260502160323 | 45 | 277 | 3.0 | 7.0 | 0.00 | 0.00 | 0.00 | 63 | 1020.1 |
| 20260502152322 | 44 | 266 | 2.0 | 7.0 | 0.00 | 0.00 | 0.00 | 66 | 1019.9 |
| 20260502151905 | 43 | 289 | 3.0 | 7.0 | 0.00 | 0.00 | 0.00 | 65 | 1019.9 |
| 20260502151349 | 43 | 296 | 3.0 | 4.0 | 0.00 | 0.00 | 0.00 | 66 | 1020.0 |
| 20260502150820 | 43 | 261 | 3.0 | 5.0 | 0.00 | 0.00 | 0.00 | 66 | 1020.0 |
| 20260502150335 | 43 | 272 | 2.0 | 5.0 | 0.00 | 0.00 | 0.00 | 66 | 1020.1 |
| 20260502130347 | 40 | 300 | 3.0 | 6.0 | 0.00 | 0.00 | 0.00 | 68 | 1020.2 |
| 20260502123342 | 40 | 299 | 2.0 | 4.0 | 0.00 | 0.00 | 0.00 | 69 | 1020.2 |
| 20260502122829 | 40 | 298 | 2.0 | 3.0 | 0.00 | 0.00 | 0.00 | 69 | 1020.2 |
| 20260502122326 | 40 | 315 | 2.0 | 4.0 | 0.00 | 0.00 | 0.00 | 69 | 1020.3 |
| 20260502121821 | 40 | 269 | 2.0 | 4.0 | 0.00 | 0.00 | 0.00 | 68 | 1020.2 |
| 20260502121321 | 40 | 275 | 2.0 | 4.0 | 0.00 | 0.00 | 0.00 | 68 | 1020.2 |
| 20260502120836 | 39 | 291 | 2.0 | 4.0 | 0.00 | 0.00 | 0.00 | 67 | 1020.1 |
| 20260502120351 | 39 | 313 | 2.0 | 4.0 | 0.00 | 0.00 | 0.00 | 66 | 1020.1 |
| 20260502115821 | 39 | 287 | 2.0 | 4.0 | 0.00 | 0.00 | 0.00 | 65 | 1020.1 |
| 20260502115402 | 39 | 285 | 2.0 | 3.0 | 0.00 | 0.00 | 0.00 | 65 | 1020.0 |
| 20260502114829 | 39 | 267 | 2.0 | 3.0 | 0.00 | 0.00 | 0.00 | 66 | 1020.0 |
| 20260502114323 | 39 | 284 | 1.0 | 3.0 | 0.00 | 0.00 | 0.00 | 66 | 1019.9 |
| 20260502113819 | 39 | 281 | 1.0 | 3.0 | 0.00 | 0.00 | 0.00 | 67 | 1019.8 |
| 20260502113334 | 39 | 223 | 1.0 | 2.0 | 0.00 | 0.00 | 0.00 | 67 | 1019.9 |
| 20260502112840 | 39 | 290 | 0.0 | 3.0 | 0.00 | 0.00 | 0.00 | 68 | 1019.9 |
| 20260502112346 | 39 | 337 | 0.0 | 3.0 | 0.00 | 0.00 | 0.00 | 68 | 1019.8 |
| 20260502111831 | 39 | 339 | 0.0 | 1.0 | 0.00 | 0.00 | 0.00 | 67 | 1019.8 |
| 20260502111331 | 39 | 335 | 0.0 | 2.0 | 0.00 | 0.00 | 0.00 | 67 | 1019.7 |
| 20260502110844 | 39 | 336 | 0.0 | 2.0 | 0.00 | 0.00 | 0.00 | 67 | 1019.7 |
| 20260502110340 | 39 | 349 | 0.0 | 2.0 | 0.00 | 0.00 | 0.00 | 67 | 1019.7 |
| 20260502105829 | 39 | 329 | 1.0 | 2.0 | 0.00 | 0.00 | 0.00 | 67 | 1019.7 |
| 20260502105326 | 39 | 321 | 1.0 | 2.0 | 0.00 | 0.00 | 0.00 | 67 | 1019.8 |
| 20260502104832 | 39 | 283 | 1.0 | 2.0 | 0.00 | 0.00 | 0.00 | 67 | 1019.9 |
| 20260502104330 | 39 | 309 | 1.0 | 2.0 | 0.00 | 0.00 | 0.00 | 67 | 1019.8 |
| 20260502103824 | 39 | 296 | 1.0 | 2.0 | 0.00 | 0.00 | 0.00 | 67 | 1019.9 |
| 20260502103318 | 39 | 302 | 1.0 | 3.0 | 0.00 | 0.00 | 0.00 | 67 | 1019.8 |
| 20260502102816 | 39 | 275 | 1.0 | 3.0 | 0.00 | 0.00 | 0.00 | 68 | 1019.8 |
| 20260502102330 | 39 | 321 | 0.0 | 2.0 | 0.00 | 0.00 | 0.00 | 68 | 1019.8 |
| 20260502101827 | 39 | 320 | 1.0 | 2.0 | 0.00 | 0.00 | 0.00 | 68 | 1019.8 |
| 20260502101344 | 39 | 299 | 1.0 | 3.0 | 0.00 | 0.00 | 0.00 | 68 | 1019.8 |
| 20260502100829 | 39 | 309 | 0.0 | 3.0 | 0.00 | 0.00 | 0.00 | 68 | 1019.8 |
| 20260502100326 | 39 | 349 | 1.0 | 3.0 | 0.00 | 0.00 | 0.00 | 68 | 1019.7 |
| 20260502091318 | 38 | 329 | 0.0 | 3.0 | 0.00 | 0.00 | 0.00 | 70 | 1019.6 |
| 20260502090835 | 38 | 329 | 1.0 | 3.0 | 0.00 | 0.00 | 0.00 | 70 | 1019.6 |
| 20260502090327 | 38 | 319 | 0.0 | 2.0 | 0.00 | 0.00 | 0.00 | 70 | 1019.5 |
| 20260502071320 | 39 | 292 | 0.0 | 2.0 | 0.00 | 0.00 | 0.00 | 70 | 1019.4 |
| 20260502070837 | 39 | 331 | 1.0 | 2.0 | 0.00 | 0.00 | 0.00 | 70 | 1019.5 |
| 20260502070327 | 39 | 29 | 0.0 | 2.0 | 0.00 | 0.00 | 0.00 | 70 | 1019.5 |
| 20260502065851 | 39 | 27 | 0.0 | 2.0 | 0.00 | 0.00 | 0.00 | 70 | 1019.5 |
| 20260502065332 | 39 | 322 | 1.0 | 2.0 | 0.00 | 0.00 | 0.00 | 70 | 1019.6 |
| 20260502064846 | 39 | 22 | 0.0 | 2.0 | 0.00 | 0.00 | 0.00 | 69 | 1019.6 |
| 20260502064357 | 39 | 330 | 0.0 | 2.0 | 0.00 | 0.00 | 0.00 | 69 | 1019.6 |
| 20260502063825 | 39 | 325 | 0.0 | 2.0 | 0.00 | 0.00 | 0.00 | 69 | 1019.7 |
| 20260502063322 | 39 | 335 | 0.0 | 2.0 | 0.00 | 0.00 | 0.00 | 69 | 1019.7 |
| 20260502062820 | 39 | 28 | 1.0 | 2.0 | 0.00 | 0.00 | 0.00 | 69 | 1019.7 |
| 20260502062337 | 39 | 342 | 1.0 | 2.0 | 0.00 | 0.00 | 0.00 | 68 | 1019.7 |
| 20260502061833 | 40 | 38 | 0.0 | 3.0 | 0.00 | 0.00 | 0.00 | 68 | 1019.7 |
| 20260502061341 | 40 | 347 | 0.0 | 3.0 | 0.00 | 0.00 | 0.00 | 68 | 1019.7 |
| 20260502060817 | 40 | 25 | 1.0 | 3.0 | 0.00 | 0.00 | 0.00 | 68 | 1019.7 |
| 20260502060331 | 40 | 5 | 1.0 | 3.0 | 0.00 | 0.00 | 0.00 | 68 | 1019.7 |
| 20260502055844 | 40 | 13 | 0.0 | 3.0 | 0.00 | 0.00 | 0.00 | 68 | 1019.7 |
| 20260502055340 | 40 | 13 | 0.0 | 3.0 | 0.00 | 0.00 | 0.00 | 68 | 1019.7 |
| 20260502054826 | 40 | 321 | 1.0 | 3.0 | 0.00 | 0.00 | 0.00 | 68 | 1019.6 |
| 20260502054321 | 40 | 327 | 1.0 | 4.0 | 0.00 | 0.00 | 0.00 | 68 | 1019.5 |
| 20260502053835 | 40 | 11 | 1.0 | 4.0 | 0.00 | 0.00 | 0.00 | 68 | 1019.6 |
| 20260502053329 | 40 | 350 | 1.0 | 4.0 | 0.00 | 0.00 | 0.00 | 68 | 1019.6 |
| 20260502052818 | 40 | 355 | 0.0 | 3.0 | 0.00 | 0.00 | 0.00 | 68 | 1019.5 |
| 20260502052336 | 40 | 10 | 1.0 | 3.0 | 0.00 | 0.00 | 0.00 | 68 | 1019.6 |
| 20260502051845 | 40 | 322 | 1.0 | 4.0 | 0.00 | 0.00 | 0.00 | 68 | 1019.5 |
| 20260502051316 | 40 | 5 | 1.0 | 4.0 | 0.00 | 0.00 | 0.00 | 68 | 1019.5 |
| 20260502050832 | 40 | 334 | 1.0 | 4.0 | 0.00 | 0.00 | 0.00 | 68 | 1019.5 |
| 20260502050337 | 40 | 332 | 1.0 | 5.0 | 0.00 | 0.00 | 0.00 | 68 | 1019.5 |
| 20260502045817 | 40 | 293 | 1.0 | 5.0 | 0.00 | 0.00 | 0.00 | 67 | 1019.5 |
| 20260502045333 | 40 | 311 | 1.0 | 4.0 | 0.00 | 0.00 | 0.00 | 66 | 1019.5 |
| 20260502044823 | 41 | 355 | 1.0 | 3.0 | 0.00 | 0.00 | 0.00 | 65 | 1019.5 |
| 20260502044332 | 41 | 309 | 1.0 | 3.0 | 0.00 | 0.00 | 0.00 | 65 | 1019.5 |
| 20260502043907 | 41 | 355 | 0.0 | 2.0 | 0.00 | 0.00 | 0.00 | 63 | 1019.5 |
| 20260502043332 | 41 | 347 | 1.0 | 4.0 | 0.00 | 0.00 | 0.00 | 62 | 1019.5 |
| 20260502042827 | 41 | 42 | 1.0 | 4.0 | 0.00 | 0.00 | 0.00 | 62 | 1019.5 |
| 20260502042336 | 41 | 32 | 1.0 | 3.0 | 0.00 | 0.00 | 0.00 | 62 | 1019.5 |
| 20260502041826 | 41 | 346 | 0.0 | 3.0 | 0.00 | 0.00 | 0.00 | 61 | 1019.5 |
| 20260502041334 | 41 | 331 | 1.0 | 3.0 | 0.00 | 0.00 | 0.00 | 61 | 1019.5 |
| 20260502040842 | 41 | 337 | 0.0 | 4.0 | 0.00 | 0.00 | 0.00 | 61 | 1019.6 |
| 20260502040318 | 41 | 308 | 2.0 | 4.0 | 0.00 | 0.00 | 0.00 | 61 | 1019.5 |
| 20260502035828 | 41 | 345 | 1.0 | 4.0 | 0.00 | 0.00 | 0.00 | 61 | 1019.5 |
| 20260502035321 | 41 | 355 | 1.0 | 2.0 | 0.00 | 0.00 | 0.00 | 61 | 1019.5 |
| 20260502034819 | 41 | 20 | 0.0 | 3.0 | 0.00 | 0.00 | 0.00 | 62 | 1019.5 |
| 20260502034340 | 41 | 39 | 0.0 | 3.0 | 0.00 | 0.00 | 0.00 | 62 | 1019.5 |
| 20260502033830 | 41 | 5 | 0.0 | 3.0 | 0.00 | 0.00 | 0.00 | 61 | 1019.6 |
| 20260502033344 | 41 | 10 | 1.0 | 3.0 | 0.00 | 0.00 | 0.00 | 61 | 1019.6 |
| 20260502032818 | 41 | 328 | 0.0 | 2.0 | 0.00 | 0.00 | 0.00 | 61 | 1019.7 |
| 20260502032412 | 41 | 308 | 0.0 | 3.0 | 0.00 | 0.00 | 0.00 | 61 | 1019.6 |
| 20260502031830 | 41 | 314 | 1.0 | 3.0 | 0.00 | 0.00 | 0.00 | 61 | 1019.7 |
| 20260502031326 | 41 | 342 | 0.0 | 2.0 | 0.00 | 0.00 | 0.00 | 61 | 1019.6 |
| 20260502030821 | 41 | 319 | 0.0 | 2.0 | 0.00 | 0.00 | 0.00 | 61 | 1019.6 |
| 20260502030336 | 41 | 317 | 0.0 | 1.0 | 0.00 | 0.00 | 0.00 | 61 | 1019.5 |
| 20260502025829 | 41 | 317 | 0.0 | 1.0 | 0.00 | 0.00 | 0.00 | 61 | 1019.4 |
| 20260502025336 | 41 | 317 | 0.0 | 1.0 | 0.00 | 0.00 | 0.00 | 61 | 1019.5 |
| 20260502024832 | 41 | 317 | 0.0 | 2.0 | 0.00 | 0.00 | 0.00 | 62 | 1019.5 |
| 20260502024317 | 41 | 317 | 1.0 | 3.0 | 0.00 | 0.00 | 0.00 | 61 | 1019.4 |
| 20260502023848 | 41 | 324 | 1.0 | 3.0 | 0.00 | 0.00 | 0.00 | 61 | 1019.4 |
| 20260502023333 | 41 | 339 | 1.0 | 3.0 | 0.00 | 0.00 | 0.00 | 61 | 1019.3 |
| 20260502022829 | 41 | 338 | 1.0 | 4.0 | 0.00 | 0.00 | 0.00 | 60 | 1019.3 |
| 20260502022322 | 41 | 324 | 1.0 | 4.0 | 0.00 | 0.00 | 0.00 | 61 | 1019.3 |
| 20260502021837 | 41 | 355 | 0.0 | 3.0 | 0.00 | 0.00 | 0.00 | 61 | 1019.3 |
| 20260502021330 | 41 | 313 | 1.0 | 3.0 | 0.00 | 0.00 | 0.00 | 61 | 1019.3 |
| 20260502020905 | 41 | 333 | 1.0 | 3.0 | 0.00 | 0.00 | 0.00 | 61 | 1019.3 |
| 20260502020328 | 41 | 329 | 0.0 | 3.0 | 0.00 | 0.00 | 0.00 | 61 | 1019.2 |
| 20260502015846 | 41 | 311 | 1.0 | 5.0 | 0.00 | 0.00 | 0.00 | 61 | 1019.2 |
| 20260502015324 | 41 | 355 | 1.0 | 5.0 | 0.00 | 0.00 | 0.00 | 60 | 1019.2 |
| 20260502014815 | 41 | 360 | 0.0 | 3.0 | 0.00 | 0.00 | 0.00 | 60 | 1019.2 |
| 20260502014331 | 41 | 5 | 1.0 | 6.0 | 0.00 | 0.00 | 0.00 | 59 | 1019.2 |
| 20260502013849 | 41 | 306 | 1.0 | 6.0 | 0.00 | 0.00 | 0.00 | 59 | 1019.1 |
| 20260502013344 | 41 | 333 | 2.0 | 4.0 | 0.00 | 0.00 | 0.00 | 59 | 1019.1 |
| 20260502012822 | 41 | 332 | 1.0 | 4.0 | 0.00 | 0.00 | 0.00 | 59 | 1019.1 |
| 20260502012359 | 41 | 342 | 1.0 | 4.0 | 0.00 | 0.00 | 0.00 | 59 | 1019.1 |
| 20260502011845 | 41 | 327 | 0.0 | 5.0 | 0.00 | 0.00 | 0.00 | 59 | 1019.1 |
| 20260502011338 | 41 | 315 | 1.0 | 5.0 | 0.00 | 0.00 | 0.00 | 59 | 1019.0 |
| 20260502010843 | 41 | 342 | 0.0 | 2.0 | 0.00 | 0.00 | 0.00 | 59 | 1019.0 |
| 20260502010339 | 41 | 296 | 1.0 | 3.0 | 0.00 | 0.00 | 0.00 | 59 | 1019.0 |
| 20260502005825 | 41 | 18 | 1.0 | 3.0 | 0.00 | 0.00 | 0.00 | 59 | 1019.0 |
| 20260502005331 | 41 | 318 | 0.0 | 3.0 | 0.00 | 0.00 | 0.00 | 59 | 1018.9 |
| 20260502004829 | 41 | 313 | 0.0 | 3.0 | 0.00 | 0.00 | 0.00 | 60 | 1018.9 |
| 20260502004327 | 41 | 280 | 1.0 | 5.0 | 0.00 | 0.00 | 0.00 | 59 | 1018.9 |
| 20260502003820 | 41 | 308 | 2.0 | 5.0 | 0.00 | 0.00 | 0.00 | 59 | 1018.7 |
| 20260502003335 | 41 | 355 | 2.0 | 5.0 | 0.00 | 0.00 | 0.00 | 59 | 1018.7 |
| 20260502002841 | 41 | 320 | 2.0 | 4.0 | 0.00 | 0.00 | 0.00 | 60 | 1018.7 |
| 20260502002334 | 41 | 295 | 2.0 | 4.0 | 0.00 | 0.00 | 0.00 | 62 | 1018.6 |
| 20260502001829 | 41 | 67 | 1.0 | 5.0 | 0.00 | 0.00 | 0.00 | 63 | 1018.5 |
| 20260502001327 | 41 | 5 | 1.0 | 5.0 | 0.00 | 0.00 | 0.00 | 64 | 1018.5 |
| 20260502000833 | 41 | 323 | 2.0 | 5.0 | 0.00 | 0.00 | 0.00 | 64 | 1018.5 |
| 20260502000318 | 41 | 313 | 2.0 | 6.0 | 0.00 | 0.00 | 0.00 | 64 | 1018.5 |
| 20260501235834 | 41 | 306 | 2.0 | 10.0 | 0.00 | 0.00 | 0.00 | 64 | 1018.6 |
| 20260501235340 | 41 | 261 | 3.0 | 10.0 | 0.00 | 0.00 | 0.00 | 63 | 1018.5 |
| 20260501234825 | 41 | 296 | 2.0 | 5.0 | 0.00 | 0.00 | 0.00 | 63 | 1018.6 |
| 20260501234332 | 41 | 267 | 2.0 | 6.0 | 0.00 | 0.00 | 0.00 | 63 | 1018.5 |
| 20260501233828 | 41 | 261 | 2.0 | 8.0 | 0.00 | 0.00 | 0.00 | 63 | 1018.5 |
| 20260501233328 | 41 | 329 | 4.0 | 9.0 | 0.00 | 0.00 | 0.00 | 64 | 1018.5 |
| 20260501232842 | 41 | 321 | 2.0 | 9.0 | 0.00 | 0.00 | 0.00 | 64 | 1018.5 |
| 20260501232317 | 41 | 304 | 3.0 | 6.0 | 0.00 | 0.00 | 0.00 | 64 | 1018.5 |
| 20260501231830 | 41 | 318 | 2.0 | 6.0 | 0.00 | 0.00 | 0.00 | 63 | 1018.5 |
| 20260501231322 | 41 | 300 | 3.0 | 13.0 | 0.00 | 0.00 | 0.00 | 63 | 1018.4 |
| 20260501230817 | 41 | 30 | 2.0 | 13.0 | 0.00 | 0.00 | 0.00 | 64 | 1018.5 |
| 20260501230401 | 41 | 346 | 3.0 | 9.0 | 0.00 | 0.00 | 0.00 | 64 | 1018.5 |
| 20260501225850 | 41 | 296 | 2.0 | 9.0 | 0.00 | 0.00 | 0.00 | 64 | 1018.5 |
| 20260501225321 | 41 | 311 | 4.0 | 8.0 | 0.00 | 0.00 | 0.00 | 64 | 1018.6 |
| 20260501224836 | 41 | 43 | 2.0 | 8.0 | 0.00 | 0.00 | 0.00 | 64 | 1018.7 |
| 20260501224334 | 41 | 30 | 2.0 | 8.0 | 0.00 | 0.00 | 0.00 | 64 | 1018.6 |
| 20260501223830 | 41 | 288 | 3.0 | 10.0 | 0.00 | 0.00 | 0.00 | 65 | 1018.5 |
| 20260501223328 | 41 | 336 | 2.0 | 10.0 | 0.00 | 0.00 | 0.00 | 65 | 1018.5 |
| 20260501222824 | 41 | 248 | 3.0 | 10.0 | 0.00 | 0.00 | 0.00 | 65 | 1018.5 |
| 20260501222343 | 41 | 311 | 2.0 | 10.0 | 0.00 | 0.00 | 0.00 | 65 | 1018.5 |
| 20260501221828 | 41 | 292 | 3.0 | 12.0 | 0.00 | 0.00 | 0.00 | 64 | 1018.5 |
| 20260501221336 | 41 | 309 | 5.0 | 12.0 | 0.00 | 0.00 | 0.00 | 64 | 1018.4 |
| 20260501220831 | 41 | 309 | 5.0 | 10.0 | 0.00 | 0.00 | 0.00 | 63 | 1018.4 |
| 20260501220329 | 41 | 266 | 5.0 | 11.0 | 0.00 | 0.00 | 0.00 | 64 | 1018.4 |
| 20260501215842 | 41 | 360 | 5.0 | 12.0 | 0.00 | 0.00 | 0.00 | 62 | 1018.4 |
| 20260501215331 | 42 | 304 | 3.0 | 12.0 | 0.00 | 0.00 | 0.00 | 61 | 1018.3 |
| 20260501214827 | 42 | 290 | 5.0 | 11.0 | 0.00 | 0.00 | 0.00 | 62 | 1018.3 |
| 20260501214323 | 42 | 309 | 5.0 | 11.0 | 0.00 | 0.00 | 0.00 | 61 | 1018.2 |
| 20260501213815 | 43 | 303 | 5.0 | 13.0 | 0.00 | 0.00 | 0.00 | 60 | 1018.2 |
| 20260501213333 | 44 | 296 | 6.0 | 13.0 | 0.00 | 0.00 | 0.00 | 60 | 1018.1 |
| 20260501212824 | 44 | 332 | 6.0 | 11.0 | 0.00 | 0.00 | 0.00 | 58 | 1018.0 |
| 20260501212322 | 44 | 298 | 6.0 | 12.0 | 0.00 | 0.00 | 0.00 | 58 | 1017.9 |
| 20260501211819 | 43 | 327 | 4.0 | 12.0 | 0.00 | 0.00 | 0.00 | 60 | 1017.9 |
| 20260501211327 | 43 | 290 | 5.0 | 11.0 | 0.00 | 0.00 | 0.00 | 60 | 1017.9 |
| 20260501210824 | 43 | 301 | 4.0 | 13.0 | 0.00 | 0.00 | 0.00 | 60 | 1017.9 |
| 20260501210318 | 43 | 292 | 6.0 | 13.0 | 0.00 | 0.00 | 0.00 | 62 | 1017.8 |
| 20260501205834 | 45 | 302 | 7.0 | 12.0 | 0.00 | 0.00 | 0.00 | 59 | 1017.8 |
| 20260501205341 | 46 | 316 | 5.0 | 12.0 | 0.00 | 0.00 | 0.00 | 61 | 1017.8 |
| 20260501204831 | 45 | 293 | 8.0 | 14.0 | 0.00 | 0.00 | 0.00 | 61 | 1017.8 |
| 20260501204321 | 45 | 303 | 8.0 | 14.0 | 0.00 | 0.00 | 0.00 | 60 | 1017.8 |
| 20260501203814 | 46 | 297 | 7.0 | 13.0 | 0.00 | 0.00 | 0.00 | 60 | 1017.7 |
| 20260501203332 | 46 | 296 | 6.0 | 12.0 | 0.00 | 0.00 | 0.00 | 58 | 1017.7 |
| 20260501202848 | 46 | 334 | 6.0 | 12.0 | 0.00 | 0.00 | 0.00 | 59 | 1017.7 |
| 20260501202336 | 46 | 302 | 7.0 | 12.0 | 0.00 | 0.00 | 0.00 | 58 | 1017.9 |
| 20260501201823 | 46 | 296 | 5.0 | 15.0 | 0.00 | 0.00 | 0.00 | 58 | 1017.8 |
| 20260501201341 | 45 | 307 | 8.0 | 15.0 | 0.00 | 0.00 | 0.00 | 56 | 1017.9 |
| 20260501200829 | 46 | 305 | 6.0 | 12.0 | 0.00 | 0.00 | 0.00 | 59 | 1017.9 |
| 20260501200340 | 46 | 282 | 6.0 | 13.0 | 0.00 | 0.00 | 0.00 | 61 | 1017.8 |
| 20260501195856 | 45 | 308 | 6.0 | 13.0 | 0.00 | 0.00 | 0.00 | 59 | 1017.7 |
| 20260501195324 | 44 | 306 | 6.0 | 13.0 | 0.00 | 0.00 | 0.00 | 56 | 1017.7 |
| 20260501194858 | 45 | 304 | 5.0 | 13.0 | 0.00 | 0.00 | 0.00 | 56 | 1017.6 |
| 20260501194344 | 46 | 273 | 7.0 | 13.0 | 0.00 | 0.00 | 0.00 | 55 | 1017.6 |
| 20260501193830 | 46 | 296 | 7.0 | 11.0 | 0.00 | 0.00 | 0.00 | 56 | 1017.6 |
| 20260501193324 | 46 | 306 | 7.0 | 11.0 | 0.00 | 0.00 | 0.00 | 57 | 1017.6 |
| 20260501192837 | 46 | 306 | 4.0 | 11.0 | 0.00 | 0.00 | 0.00 | 56 | 1017.6 |
| 20260501192332 | 46 | 295 | 5.0 | 12.0 | 0.00 | 0.00 | 0.00 | 56 | 1017.7 |
| 20260501191828 | 46 | 314 | 6.0 | 12.0 | 0.00 | 0.00 | 0.00 | 58 | 1017.6 |
| 20260501191326 | 45 | 309 | 7.0 | 10.0 | 0.00 | 0.00 | 0.00 | 55 | 1017.5 |
| 20260501190818 | 44 | 319 | 4.0 | 14.0 | 0.00 | 0.00 | 0.00 | 57 | 1017.6 |
| 20260501190316 | 44 | 297 | 6.0 | 14.0 | 0.00 | 0.00 | 0.00 | 56 | 1017.6 |
| 20260501185853 | 45 | 317 | 7.0 | 13.0 | 0.00 | 0.00 | 0.00 | 57 | 1017.5 |
| 20260501185328 | 45 | 313 | 7.0 | 13.0 | 0.00 | 0.00 | 0.00 | 58 | 1017.4 |
| 20260501184823 | 45 | 299 | 8.0 | 12.0 | 0.00 | 0.00 | 0.00 | 56 | 1017.4 |
| 20260501184409 | 45 | 294 | 5.0 | 16.0 | 0.00 | 0.00 | 0.00 | 57 | 1017.3 |
| 20260501183830 | 44 | 298 | 7.0 | 16.0 | 0.00 | 0.00 | 0.00 | 58 | 1017.4 |
| 20260501183343 | 44 | 336 | 8.0 | 14.0 | 0.00 | 0.00 | 0.00 | 58 | 1017.3 |
| 20260501182829 | 45 | 319 | 9.0 | 14.0 | 0.00 | 0.00 | 0.00 | 58 | 1017.3 |
| 20260501182326 | 44 | 294 | 8.0 | 14.0 | 0.00 | 0.00 | 0.00 | 59 | 1017.3 |
| 20260501181833 | 45 | 319 | 8.0 | 14.0 | 0.00 | 0.00 | 0.00 | 59 | 1017.3 |
| 20260501181339 | 45 | 316 | 7.0 | 12.0 | 0.00 | 0.00 | 0.00 | 57 | 1017.4 |
| 20260501180834 | 45 | 288 | 6.0 | 12.0 | 0.00 | 0.00 | 0.00 | 58 | 1017.3 |
| 20260501180326 | 45 | 322 | 4.0 | 11.0 | 0.00 | 0.00 | 0.00 | 60 | 1017.3 |
| 20260501175823 | 45 | 291 | 7.0 | 11.0 | 0.00 | 0.00 | 0.00 | 59 | 1017.2 |
| 20260501175321 | 45 | 292 | 5.0 | 11.0 | 0.00 | 0.00 | 0.00 | 61 | 1017.2 |
| 20260501174817 | 45 | 302 | 4.0 | 12.0 | 0.00 | 0.00 | 0.00 | 62 | 1017.2 |
| 20260501174335 | 45 | 301 | 5.0 | 12.0 | 0.00 | 0.00 | 0.00 | 61 | 1017.1 |
| 20260501173825 | 46 | 298 | 7.0 | 12.0 | 0.00 | 0.00 | 0.00 | 59 | 1017.1 |